Location: Elstree
(51.6403°N, 0.2969°W)
Time: 14:36:10
(UTC+00:00)

Cosmos 1354 Rocket - Pass Details

Date: 26 June 2021
Orbit: 764 x 783 km, 74.0° (Epoch: 25 July)

Event Time Altitude Azimuth Distance (km) Brightness Sun altitude
Rises 23:17:34 0° 319° (NW) 3,284 8.4 -14.3°
Reaches altitude 10° 23:21:41 10° 289° (WNW) 2,347 6.9 -14.5°
Maximum altitude 23:23:26 12° 269° (W) 2,231 6.5 -14.5°
Drops below altitude 10° 23:25:10 10° 250° (WSW) 2,339 6.4 -14.5°
Enters shadow 23:27:54 - 227° (SW) 2,880 6.6 -14.6°
